Notices

What's New in latest Release from April 7th, 2021:

- Updated Glossary, including Speed of Maximum Gust, and Total Hourly Precipitation

- Updated national and regional climate services offices contacts and prices information

- Addition of station inventory lists for 1981-2010, 1971-2000, and 1961-1990 Normals.

If you haven't already, please take our survey and provide feedback about our website: https://eccc.sondage-survey.ca/f/LanguageSelection.aspx?s=442ca660-fcf1-47c0-95a9-59707d6fd709

Hourly Data Report for August 24, 2019

TORONTO CITY
ONTARIO
Current Station Operator: ECCC - MSC

43°40'00.000" N
79°24'00.000" W
112.50 m
6158355
71508
XTO

Download Data

Hourly Data (August 2019)
Hourly Data Report for August 24, 2019
TIME
LST
Temp Definition
°C
Dew Point Definition
°C
Rel Hum Definition
%
Precip. Amount Definition
mm

Wind Dir Definition
10's deg

Wind Spd Definition
km/h
Visibility Definition
km
Stn Press Definition
kPa
Hmdx Definition


Wind Chill Definition


Weather Definition


00:00 16.2 7.6 57 0.0       100.97     LegendNANA
01:00 16.0 6.8 55 0.0       101.00     LegendNANA
02:00 15.2 6.7 57 0.0       101.01     LegendNANA
03:00 14.0 7.1 63 0.0       101.06     LegendNANA
04:00 13.9 7.2 64 0.0       101.08     LegendNANA
05:00 14.5 8.2 66 0.0       101.12     LegendNANA
06:00 14.4 8.4 67 0.0       101.19     LegendNANA
07:00 15.2 8.7 65 0.0       101.25     LegendNANA
08:00 16.9 9.2 60 0.0       101.28     LegendNANA
09:00 18.1 8.3 53 0.0       101.29     LegendNANA
10:00 19.9 7.4 45 0.0       101.28     LegendNANA
11:00 20.3 9.0 48 0.0       101.24     LegendNANA
12:00 20.4 9.8 51 0.0       101.21     LegendNANA
13:00 20.0 8.4 47 0.0       101.20     LegendNANA
14:00 21.1 9.1 46 0.0       101.18     LegendNANA
15:00 21.1 7.8 42 0.0       101.16     LegendNANA
16:00 20.8 8.8 46 0.0       101.13     LegendNANA
17:00 20.5 9.1 48 0.0       101.14     LegendNANA
18:00 20.0 9.0 49 0.0       101.14     LegendNANA
19:00 19.1 9.5 54 0.0       101.17     LegendNANA
20:00 18.6 10.0 57 0.0       101.17     LegendNANA
21:00 17.7 10.0 60 0.0       101.21     LegendNANA
22:00 17.8 10.3 61 0.0       101.24     LegendNANA
23:00 17.7 11.0 65 0.0       101.25     LegendNANA

Notes on Data Quality.

Legend

  • E = Estimated
  • M = Missing
  • NA = Not Available*
  • [empty] = Indicates an unobserved value
Date modified: